Location: Gudimettap?lem
(16.7152°N, 80.1962°E)
Time: 15:07:19
(UTC+00:00)

Daily predictions for brighter satellites

Satellite Brightness Start Highest point End
(mag) Time Altitude Azimuth Time Altitude Azimuth Time Altitude Azimuth
Cosmos 1844 Rocket 3.4 13:27:39 10° SSW 13:33:07 59° WNW 13:38:35 10° N
Cosmos 1125 Rocket 4.5 13:30:54 10° NNE 13:35:17 28° ENE 13:39:38 10° SE
Cosmos 2142 Rocket 4.5 13:29:36 10° S 13:35:41 66° E 13:41:43 10° NNE
Radarsat Rocket 4.4 13:29:22 10° SSE 13:36:32 65° ENE 13:42:52 10° N
Milstar 3 Cent rocket 4.2 13:31:05 10° WNW 13:36:58 27° N 13:41:11 10° NE
Delta 128 4.4 13:34:02 10° NW 13:38:28 42° NNE 13:42:41 10° E
BlueWalker 3 1.7 13:41:10 10° NNW 13:44:41 75° NE 13:48:11 10° SE
NOSS 3-2 (C) 2.9 13:40:53 10° SSW 13:45:32 80° WNW 13:50:27 10° NNE
SJ-6B 3.4 13:43:44 10° SE 13:46:44 29° ENE 13:49:46 10° NNE
USA 267 3.4 13:41:48 10° SE 13:48:13 64° NE 13:54:40 10° NNW
IUS-17 SRM-1 4.0 13:37:28 10° WNW 13:50:17 65° NNE 13:53:18 11° E
PSLV R/B 3.7 13:47:56 10° SSE 13:51:50 47° ENE 13:55:42 10° N
YAOGAN 1 4.4 13:52:12 10° SSW 13:55:57 31° W 13:59:44 10° NW
USA 238 DEB 4.4 13:57:03 10° SSE 14:01:14 20° ESE 14:05:29 10° ENE
GPS 2-12 Rocket1 3.0 13:56:48 10° W 14:01:17 82° N 14:05:42 10° ENE
USA 238 4.5 13:57:20 10° SSE 14:01:27 20° ESE 14:05:39 10° ENE
SL-14 R/B 4.3 14:01:11 14° SE 14:03:23 24° E 14:06:23 10° NE
SWIFT 2.9 14:09:27 10° SSW 14:11:50 21° SSE 14:11:59 21° SSE
ATLAS 5 CENTAUR R/B 1.9 14:11:20 25° SE 14:11:54 28° ESE 14:15:06 10° NE
Meteor 2-20 Rocket 4.3 14:06:36 10° S 14:12:17 65° E 14:18:07 10° NNE
Cosmos 44 Rocket 3.9 14:07:58 10° N 14:12:41 41° ENE 14:15:29 21° ESE
ATLAS 2AS CENTAUR R/B 2.7 14:10:10 10° NNW 14:16:59 79° ENE 14:22:45 16° SSE
Aurora 2 Rocket 3.7 14:12:01 10° W 14:18:18 53° NNW 14:22:50 10° ENE
Cosmos 1066 Rocket 4.2 14:13:14 10° S 14:18:52 88° E 14:24:38 10° N
SAR-Lupe-4 4.0 14:16:22 10° S 14:19:50 61° WSW 14:23:19 10° NNW
Cosmos 1151 Rocket 4.3 14:23:15 21° E 14:23:15 21° E 14:26:17 10° NE
Hubble Space Telescope 1.5 14:22:11 10° NW 14:25:40 37° NNE 14:27:21 24° ENE
Cosmos 1943 Rocket 4.0 14:31:10 13° ENE 14:31:10 13° ENE 14:32:12 10° ENE
SL-16 R/B 3.9 14:30:34 10° NW 14:35:25 30° WSW 14:40:16 10° SSW
Meteor 2-10 Rocket 4.2 14:30:33 10° NNE 14:35:43 38° E 14:37:13 32° ESE
Cosmos 1943 3.1 14:33:09 10° NNW 14:38:46 81° ENE 14:41:51 28° SSE
CSL-04 Rocket 3.5 14:36:41 25° SSE 14:39:53 75° ENE 14:45:08 10° N
CZ-4C R/B 3.3 14:31:46 10° NNW 14:40:09 72° ENE 14:45:55 26° SE
IUS-26 SRM-1 2.3 14:37:17 10° WNW 14:41:40 59° SSW 14:41:42 59° SSW
Cosmos 1842 Rocket 4.3 14:39:58 10° SSW 14:44:16 52° W 14:48:34 10° N
Sich 1 4.5 14:44:33 10° NNE 14:46:56 23° NE 14:46:56 23° NE
CZ-3 Stage 3 1.7 14:39:22 10° WNW 14:48:47 72° NNE 14:49:47 49° E
SPOT 5 3.4 14:47:42 20° S 14:50:57 58° W 14:55:55 10° NNW
CSL-04 Debris 4.2 14:55:47 33° S 14:58:22 80° WSW 15:03:48 10° NNW
CZ-4B R/B 3.8 15:03:20 69° NNW 15:03:20 69° NNW 15:06:35 10° NNW
Meteor 1-31 Rocket 3.5 15:08:52 42° NNW 15:08:52 42° NNW 15:11:16 10° NNW
ADEOS 4.0 15:15:59 47° NE 15:15:59 47° NE 15:20:19 10° N
Feng Yun 1-1 Rocket 4.3 15:18:43 60° S 15:19:46 79° WSW 15:25:29 10° NNW
Cosmos 1655 Rocket 3.9 15:14:04 10° N 15:20:28 81° E 15:21:30 64° SSE
USA 59 Rocket 1.0 15:16:27 10° SW 15:21:54 50° WNW 15:25:49 10° N
CZ-4 R/B 2.6 15:22:21 36° W 15:22:21 36° W 15:25:26 10° NNW
CZ-4B DEB 4.3 15:22:33 62° SSW 15:23:20 73° WSW 15:28:48 10° NNW
PAYLOAD B 4.1 15:23:12 74° S 15:23:43 84° WSW 15:29:19 10° NNW
NOSS 2-1 (D) 4.3 15:20:44 10° SW 15:26:26 57° WNW 15:30:30 10° NNE
CZ-4B R/B 3.1 15:31:10 80° NNW 15:31:10 80° NNW 15:36:13 10° NNW
ERS-1 Rocket 3.4 15:31:31 54° WSW 15:31:38 54° W 15:36:30 10° NNW
Cosmos 1553 Rocket 4.3 15:37:06 45° SW 15:38:57 63° W 15:45:12 10° N
Terra 2.7 15:40:13 44° WNW 15:40:13 44° WNW 15:44:07 10° NNW
IRS-1A Rocket 4.4 15:41:26 77° NNW 15:41:26 77° NNW 15:46:49 10° NNW
Okean O Rocket 3.7 15:46:35 21° N 15:46:35 21° N 15:48:03 10° N
Cosmos 1607 4.5 15:40:19 10° NNW 15:45:34 51° NNE 15:45:34 51° NNE
Cosmos 1603 4.3 15:44:45 10° NNW 15:49:45 50° W 15:49:45 50° W
Cosmos 2278 Rocket 3.5 16:01:48 32° N 16:01:48 32° N 16:04:45 10° NNE
FALCON 9 R/B 4.4 15:51:53 10° WNW 16:01:36 73° SSW 16:10:05 50° SE
Cosmos 1943 Rocket 3.5 16:12:31 36° WNW 16:12:31 36° WNW 16:17:11 10° N
Milstar 3 Cent rocket 3.9 16:11:32 10° NW 16:13:40 24° NNW 16:13:40 24° NNW
Intelsat 5-1 Rocket 4.4 16:50:59 10° WNW 17:10:37 67° NNW 17:10:37 67° NNW
Resurs 1-4 Rocket 4.2 20:45:23 10° NNE 20:47:33 23° NE 20:47:33 23° NE
Centaur D AC-29 3.5 20:57:20 24° NE 20:57:20 24° NE 20:58:48 10° NE
ATLAS 3B R/B 3.9 21:08:47 35° NW 21:08:47 35° NW 21:14:13 10° N
ALOS 4.3 21:18:31 10° N 21:20:10 22° N 21:20:10 22° N
Palapa 6 Rocket 4.1 21:31:17 74° N 21:31:17 74° N 21:38:44 10° ENE
Delta 202 4.0 21:33:50 72° NE 21:33:50 72° NE 21:40:35 10° E
Cosmos 2227 Rocket 4.5 21:30:03 10° NNE 21:34:14 21° ENE 21:38:23 10° ESE
CZ-2D R/B 3.1 21:32:16 10° N 21:35:43 39° NNW 21:35:43 39° NNW
CENTAUR R/B 4.3 21:31:23 10° N 21:40:11 47° ENE 21:49:07 10° SE
Delta 7925 Rocket 4.4 21:42:06 37° E 21:42:06 37° E 21:45:13 10° ENE
Cosmos 2237 4.1 21:49:17 83° ENE 21:49:17 83° ENE 21:54:50 10° NNE
GPS 2-15 Rocket1 3.5 21:57:00 61° ENE 21:57:00 61° ENE 22:01:00 10° ENE
H-2A R/B 3.3 21:53:44 10° N 21:56:40 29° NW 21:56:40 29° NW
Cosmos 1980 Rocket 3.6 22:01:16 24° NW 22:01:16 24° NW 22:04:36 10° NNW
Cosmos 2297 Rocket 2.8 21:58:25 10° NNW 22:02:15 41° NW 22:02:15 41° NW
ADEOS II 2.8 21:59:08 10° N 22:03:08 40° NW 22:03:08 40° NW
ARGOS 3.0 22:01:10 10° N 22:06:34 86° WNW 22:07:16 69° SSW
AQUA 4.0 22:02:04 10° NNE 22:06:42 65° ESE 22:07:19 58° SE
Cosmos 2228 3.8 22:03:28 10° N 22:06:16 41° NNW 22:06:16 41° NNW
GPS 2-17 Rocket1 4.2 22:09:33 30° SE 22:09:33 30° SE 22:12:16 10° E
Delta 168 3.2 22:11:20 60° ESE 22:11:20 60° ESE 22:15:34 10° ENE
EPKM 3.9 22:12:57 20° N 22:12:57 20° N 22:15:22 10° NE
NOSS 3-4 (A) 4.3 22:10:42 24° SSE 22:13:00 34° ESE 22:17:41 10° NE
Cosmos 1864 Rocket 4.4 22:07:14 10° N 22:13:22 83° E 22:17:32 22° S
NOSS 3-4 (C) 4.3 22:11:22 23° SSE 22:13:46 34° ESE 22:18:27 10° NE
H-2A R/B 3.3 22:10:40 10° NNE 22:14:35 36° E 22:16:28 24° SSE
CZ-2C R/B 3.8 22:13:59 10° NE 22:18:29 35° E 22:22:32 13° SSE
Cosmos 1536 Rocket 3.4 22:22:25 61° S 22:23:10 88° E 22:27:33 10° N
Cosmos 2263 Rocket 3.5 22:17:59 10° N 22:23:11 39° ENE 22:28:24 10° SE
Cosmos 2360 Rocket 3.8 22:20:07 10° SSE 22:24:59 30° ESE 22:29:52 10° NE
Resurs 1-4 Rocket 4.1 22:27:15 10° NW 22:28:35 13° WNW 22:28:35 13° WNW
Cosmos 1743 3.3 22:29:50 34° ESE 22:30:18 37° E 22:33:04 10° NNE
IUS-13 SRM-1 3.8 22:30:22 16° NNW 22:31:03 18° N 22:33:54 10° NE
USA 234 4.0 22:25:13 10° NNE 22:31:09 38° NW 22:33:45 28° W
SL-16 R/B 2.1 22:29:42 34° SSW 22:32:19 90° NE 22:37:59 10° NNE
Spot 2 3.9 22:30:39 32° S 22:32:34 80° WSW 22:36:44 10° NNW
Cosmos 1459 Rocket 4.4 22:30:21 10° NNW 22:36:10 41° W 22:38:15 32° SW
Cosmos 841 Rocket 4.3 22:34:11 10° NW 22:37:58 30° W 22:37:58 30° W
Cosmos 2061 Rocket 4.3 22:36:16 10° N 22:42:33 68° E 22:48:44 10° SSE
Mugunghwa Rocket 4.4 22:40:58 32° WSW 22:42:42 37° SSW 22:48:44 10° SE
Cosmos 2333 Rocket 2.1 22:40:33 27° SSW 22:43:42 79° WNW 22:49:22 10° NNE
Cosmos 2278 3.7 22:40:53 22° SSW 22:44:40 86° ESE 22:50:22 10° NNE
Palapa B4 Rocket 4.4 22:41:46 24° W 22:46:11 45° SSW 22:51:23 10° SE
NOSS 2-2 (E) 4.5 22:45:01 10° NW 22:50:17 58° WSW 22:57:47 10° SSE
SL-08 R/B 4.4 22:47:26 10° NNW 22:53:24 61° W 22:59:22 10° S
Fermi 3.6 22:53:38 18° WNW 22:56:25 81° NNE 23:00:18 10° ESE
Cosmos 2016 Rocket 4.3 22:51:03 10° NNW 22:57:00 47° W 23:03:03 10° SSW
SL-16 R/B 2.8 22:53:16 10° SSE 22:59:26 74° ENE 23:05:35 10° N
Cosmos 1892 Rocket 3.6 22:57:22 10° S 23:01:39 75° E 23:05:55 10° N
Tiangong -1.8 23:08:57 25° WSW 23:10:31 53° NW 23:13:34 10° NE
Cosmos 2098 Rocket 3.7 23:08:39 10° N 23:13:25 71° E 23:18:46 10° S
H-2A R/B 4.0 23:15:22 14° W 23:15:22 14° W 23:17:11 10° WNW
Cosmos 2227 Rocket 2.9 23:13:15 10° NW 23:18:03 30° WSW 23:22:52 10° SSW
Cosmos 44 4.1 23:14:40 16° SW 23:18:04 37° WNW 23:22:51 10° N
SeaSat 1 2.5 23:14:39 10° S 23:19:24 53° WSW 23:24:10 10° NW
Lacrosse 5 rocket 0.9 23:16:40 10° NNW 23:19:55 74° ENE 23:23:06 10° SE
Cosmos 2322 Rocket 2.3 23:16:25 10° SSW 23:21:54 59° WNW 23:27:26 10° N
Cosmos 1606 Rocket 3.5 23:25:40 10° N 23:30:03 79° W 23:34:29 10° S
CENTAUR R/B 4.0 23:22:32 10° NW 23:30:45 35° WSW 23:38:52 10° S
SEDSat Delta rocket 4.0 23:26:32 11° WSW 23:32:38 66° NNW 23:38:22 10° NE
Okean 1 3.1 23:30:39 10° NNW 23:34:02 50° W 23:37:24 10° S
NOAA 12 4.1 23:30:09 10° NNE 23:35:27 88° WNW 23:40:46 10° SSW
Delta 7925 Rocket 4.4 23:30:58 10° W 23:35:29 41° NNW 23:40:46 10° ENE
Cosmos 1939 Rocket 3.4 23:32:48 10° N 23:36:08 34° WNW 23:39:27 10° SW
Cosmos 158 Rocket 4.4 23:35:00 10° NW 23:39:21 34° W 23:43:44 10° SSW
GPS 2-15 Rocket1 3.6 23:35:23 10° W 23:40:06 59° N 23:44:51 10° ENE
Cosmos 1814 Rocket 4.3 23:37:10 10° NNW 23:42:07 44° W 23:47:01 10° S
USA 281 3.3 23:36:22 10° SSE 23:42:56 85° WSW 23:49:31 10° NNW
Cosmos 1626 Rocket 3.9 23:41:20 10° S 23:45:39 69° E 23:49:59 10° N
Cosmos 2219 3.3 23:41:31 10° NNW 23:47:07 63° WSW 23:52:45 10° S
